Year,Month,Day,Hour,Minute,Value (Times are PST for windspeed in km/hr)
2022,05,16,00,00,0.00
2022,05,16,00,01,0.00
2022,05,16,00,02,0.00
2022,05,16,00,03,0.00
2022,05,16,00,04,0.00
2022,05,16,00,05,0.00
2022,05,16,00,06,1.00
2022,05,16,00,07,2.80
2022,05,16,00,08,2.40
2022,05,16,00,09,0.70
2022,05,16,00,10,0.00
2022,05,16,00,11,0.00
2022,05,16,00,12,0.00
2022,05,16,00,13,0.00
2022,05,16,00,14,0.00
2022,05,16,00,15,0.00
2022,05,16,00,16,0.00
2022,05,16,00,17,0.50
2022,05,16,00,18,0.90
2022,05,16,00,19,0.00
2022,05,16,00,20,0.00
2022,05,16,00,21,0.00
2022,05,16,00,22,0.00
2022,05,16,00,23,0.00
2022,05,16,00,24,0.00
2022,05,16,00,25,0.00
2022,05,16,00,26,0.00
2022,05,16,00,27,0.00
2022,05,16,00,28,0.00
2022,05,16,00,29,0.00
2022,05,16,00,30,0.00
2022,05,16,00,31,0.00
2022,05,16,00,32,0.00
2022,05,16,00,33,0.00
2022,05,16,00,34,0.00
2022,05,16,00,35,0.00
2022,05,16,00,36,0.00
2022,05,16,00,37,0.00
2022,05,16,00,38,0.00
2022,05,16,00,39,0.00
2022,05,16,00,40,0.00
2022,05,16,00,41,0.00
2022,05,16,00,42,0.00
2022,05,16,00,43,0.00
2022,05,16,00,44,0.00
2022,05,16,00,45,0.00
2022,05,16,00,46,0.00
2022,05,16,00,47,0.00
2022,05,16,00,48,0.00
2022,05,16,00,49,0.00
2022,05,16,00,50,0.00
2022,05,16,00,51,0.00
2022,05,16,00,52,0.00
2022,05,16,00,53,0.00
2022,05,16,00,54,0.00
2022,05,16,00,55,0.00
2022,05,16,00,56,0.00
2022,05,16,00,57,0.00
2022,05,16,00,58,0.00
2022,05,16,00,59,0.00
2022,05,16,01,00,0.00
2022,05,16,01,01,0.00
2022,05,16,01,02,0.00
2022,05,16,01,03,0.00
2022,05,16,01,04,0.00
2022,05,16,01,05,0.00
2022,05,16,01,06,0.00
2022,05,16,01,07,0.00
2022,05,16,01,08,0.00
2022,05,16,01,09,0.00
2022,05,16,01,10,0.00
2022,05,16,01,11,0.00
2022,05,16,01,12,0.00
2022,05,16,01,13,0.00
2022,05,16,01,14,0.00
2022,05,16,01,15,0.00
2022,05,16,01,16,0.00
2022,05,16,01,17,0.00
2022,05,16,01,18,0.00
2022,05,16,01,19,0.00
2022,05,16,01,20,0.00
2022,05,16,01,21,0.00
2022,05,16,01,22,0.10
2022,05,16,01,23,0.00
2022,05,16,01,24,0.10
2022,05,16,01,25,0.00
2022,05,16,01,26,0.00
2022,05,16,01,27,0.00
2022,05,16,01,28,0.00
2022,05,16,01,29,0.00
2022,05,16,01,30,0.00
2022,05,16,01,31,0.00
2022,05,16,01,32,0.00
2022,05,16,01,33,0.00
2022,05,16,01,34,0.00
2022,05,16,01,35,0.00
2022,05,16,01,36,0.00
2022,05,16,01,37,0.00
2022,05,16,01,38,0.00
2022,05,16,01,39,0.00
2022,05,16,01,40,0.00
2022,05,16,01,41,0.00
2022,05,16,01,42,0.00
2022,05,16,01,43,0.00
2022,05,16,01,44,0.00
2022,05,16,01,45,0.00
2022,05,16,01,46,0.00
2022,05,16,01,47,0.00
2022,05,16,01,48,0.00
2022,05,16,01,49,0.00
2022,05,16,01,50,0.00
2022,05,16,01,51,0.00
2022,05,16,01,52,0.00
2022,05,16,01,53,0.00
2022,05,16,01,54,0.00
2022,05,16,01,55,0.00
2022,05,16,01,56,0.00
2022,05,16,01,57,0.00
2022,05,16,01,58,0.00
2022,05,16,01,59,0.00
2022,05,16,02,00,0.00
2022,05,16,02,01,0.00
2022,05,16,02,02,0.00
2022,05,16,02,03,0.00
2022,05,16,02,04,0.00
2022,05,16,02,05,0.00
2022,05,16,02,06,0.00
2022,05,16,02,07,0.00
2022,05,16,02,08,0.00
2022,05,16,02,09,0.00
2022,05,16,02,10,0.00
2022,05,16,02,11,0.00
2022,05,16,02,12,0.00
2022,05,16,02,13,0.00
2022,05,16,02,14,0.00
2022,05,16,02,15,0.00
2022,05,16,02,16,0.00
2022,05,16,02,17,0.00
2022,05,16,02,18,0.00
2022,05,16,02,19,0.00
2022,05,16,02,20,0.00
2022,05,16,02,21,0.00
2022,05,16,02,22,0.00
2022,05,16,02,23,0.00
2022,05,16,02,24,0.00
2022,05,16,02,25,0.00
2022,05,16,02,26,0.00
2022,05,16,02,27,0.00
2022,05,16,02,28,0.00
2022,05,16,02,29,0.00
2022,05,16,02,30,0.00
2022,05,16,02,31,0.00
2022,05,16,02,32,0.00
2022,05,16,02,33,0.00
2022,05,16,02,34,0.00
2022,05,16,02,35,0.00
2022,05,16,02,36,0.00
2022,05,16,02,37,0.00
2022,05,16,02,38,0.00
2022,05,16,02,39,0.00
2022,05,16,02,40,0.00
2022,05,16,02,41,0.00
2022,05,16,02,42,0.00
2022,05,16,02,43,0.00
2022,05,16,02,44,0.00
2022,05,16,02,45,0.00
2022,05,16,02,46,0.00
2022,05,16,02,47,0.20
2022,05,16,02,48,0.10
2022,05,16,02,49,1.00
2022,05,16,02,50,2.70
2022,05,16,02,51,0.00
2022,05,16,02,52,0.00
2022,05,16,02,53,0.00
2022,05,16,02,54,0.00
2022,05,16,02,55,0.00
2022,05,16,02,56,0.00
2022,05,16,02,57,0.00
2022,05,16,02,58,0.00
2022,05,16,02,59,0.00
2022,05,16,03,00,0.00
2022,05,16,03,01,0.40
2022,05,16,03,02,0.40
2022,05,16,03,03,0.80
2022,05,16,03,04,0.00
2022,05,16,03,05,0.00
2022,05,16,03,06,0.00
2022,05,16,03,07,0.00
2022,05,16,03,08,0.00
2022,05,16,03,09,0.00
2022,05,16,03,10,0.00
2022,05,16,03,11,0.00
2022,05,16,03,12,0.00
2022,05,16,03,13,0.70
2022,05,16,03,14,0.30
2022,05,16,03,15,0.00
2022,05,16,03,16,0.00
2022,05,16,03,17,0.00
2022,05,16,03,18,0.00
2022,05,16,03,19,0.00
2022,05,16,03,20,0.00
2022,05,16,03,21,0.00
2022,05,16,03,22,0.00
2022,05,16,03,23,0.00
2022,05,16,03,24,0.00
2022,05,16,03,25,0.00
2022,05,16,03,26,0.00
2022,05,16,03,27,0.00
2022,05,16,03,28,0.00
2022,05,16,03,29,0.00
2022,05,16,03,30,0.00
2022,05,16,03,31,0.00
2022,05,16,03,32,0.00
2022,05,16,03,33,0.00
2022,05,16,03,34,0.00
2022,05,16,03,35,0.00
2022,05,16,03,36,0.00
2022,05,16,03,37,0.00
2022,05,16,03,38,0.00
2022,05,16,03,39,0.20
2022,05,16,03,40,0.00
2022,05,16,03,41,0.00
2022,05,16,03,42,0.30
2022,05,16,03,43,1.20
2022,05,16,03,44,3.80
2022,05,16,03,45,4.10
2022,05,16,03,46,1.10
2022,05,16,03,47,1.70
2022,05,16,03,48,0.70
2022,05,16,03,49,0.20
2022,05,16,03,50,4.50
2022,05,16,03,51,4.70
2022,05,16,03,52,2.10
2022,05,16,03,53,4.30
2022,05,16,03,54,5.70
2022,05,16,03,55,4.40
2022,05,16,03,56,1.90
2022,05,16,03,57,8.30
2022,05,16,03,58,7.60
2022,05,16,03,59,5.50
2022,05,16,04,00,3.50
2022,05,16,04,01,5.30
2022,05,16,04,02,6.80
2022,05,16,04,03,3.90
2022,05,16,04,04,5.50
2022,05,16,04,05,5.60
2022,05,16,04,06,1.90
2022,05,16,04,07,9.60
2022,05,16,04,08,6.20
2022,05,16,04,09,8.80
2022,05,16,04,10,2.40
2022,05,16,04,11,2.90
2022,05,16,04,12,6.50
2022,05,16,04,13,3.80
2022,05,16,04,14,4.70
2022,05,16,04,15,6.50
2022,05,16,04,16,3.20
2022,05,16,04,17,9.00
2022,05,16,04,18,13.60
2022,05,16,04,19,5.40
2022,05,16,04,20,8.00
2022,05,16,04,21,11.70
2022,05,16,04,22,5.20
2022,05,16,04,23,3.60
2022,05,16,04,24,5.90
2022,05,16,04,25,7.50
2022,05,16,04,26,4.70
2022,05,16,04,27,8.00
2022,05,16,04,28,6.90
2022,05,16,04,29,8.00
2022,05,16,04,30,8.80
2022,05,16,04,31,11.00
2022,05,16,04,32,7.10
2022,05,16,04,33,7.30
2022,05,16,04,34,5.30
2022,05,16,04,35,4.40
2022,05,16,04,36,7.60
2022,05,16,04,37,5.20
2022,05,16,04,38,5.30
2022,05,16,04,39,8.20
2022,05,16,04,40,9.30
2022,05,16,04,41,5.50
2022,05,16,04,42,11.90
2022,05,16,04,43,8.30
2022,05,16,04,44,8.40
2022,05,16,04,45,2.80
2022,05,16,04,46,11.40
2022,05,16,04,47,5.90
2022,05,16,04,48,5.30
2022,05,16,04,49,1.90
2022,05,16,04,50,2.50
2022,05,16,04,51,4.10
2022,05,16,04,52,4.40
2022,05,16,04,53,9.20
2022,05,16,04,54,5.30
2022,05,16,04,55,4.10
2022,05,16,04,56,6.40
2022,05,16,04,57,7.10
2022,05,16,04,58,5.40
2022,05,16,04,59,7.60
2022,05,16,05,00,4.80
2022,05,16,05,01,8.60
2022,05,16,05,02,5.20
2022,05,16,05,03,8.60
2022,05,16,05,04,11.30
2022,05,16,05,05,6.50
2022,05,16,05,06,6.60
2022,05,16,05,07,8.20
2022,05,16,05,08,6.80
2022,05,16,05,09,5.30
2022,05,16,05,10,7.50
2022,05,16,05,11,4.50
2022,05,16,05,12,7.80
2022,05,16,05,13,7.90
2022,05,16,05,14,7.10
2022,05,16,05,15,11.80
2022,05,16,05,16,15.50
2022,05,16,05,17,10.00
2022,05,16,05,18,12.70
2022,05,16,05,19,9.70
2022,05,16,05,20,8.80
2022,05,16,05,21,10.10
2022,05,16,05,22,8.10
2022,05,16,05,23,8.10
2022,05,16,05,24,8.90
2022,05,16,05,25,11.50
2022,05,16,05,26,14.00
2022,05,16,05,27,7.90
2022,05,16,05,28,6.00
2022,05,16,05,29,10.90
2022,05,16,05,30,4.30
2022,05,16,05,31,10.90
2022,05,16,05,32,3.50
2022,05,16,05,33,4.30
2022,05,16,05,34,6.40
2022,05,16,05,35,6.00
2022,05,16,05,36,7.00
2022,05,16,05,37,7.30
2022,05,16,05,38,11.00
2022,05,16,05,39,6.00
2022,05,16,05,40,7.40
2022,05,16,05,41,14.20
2022,05,16,05,42,9.80
2022,05,16,05,43,11.10
2022,05,16,05,44,9.40
2022,05,16,05,45,9.30
2022,05,16,05,46,9.70
2022,05,16,05,47,7.90
2022,05,16,05,48,9.60
2022,05,16,05,49,8.60
2022,05,16,05,50,4.30
2022,05,16,05,51,5.50
2022,05,16,05,52,6.10
2022,05,16,05,53,4.10
2022,05,16,05,54,8.20
2022,05,16,05,55,5.90
2022,05,16,05,56,7.80
2022,05,16,05,57,14.60
2022,05,16,05,58,7.50
2022,05,16,05,59,9.70
2022,05,16,06,00,6.80
2022,05,16,06,01,7.20
2022,05,16,06,02,10.20
2022,05,16,06,03,9.90
2022,05,16,06,04,5.10
2022,05,16,06,05,6.00
2022,05,16,06,06,10.80
2022,05,16,06,07,15.60
2022,05,16,06,08,7.20
2022,05,16,06,09,11.30
2022,05,16,06,10,8.60
2022,05,16,06,11,17.40
2022,05,16,06,12,9.70
2022,05,16,06,13,5.30
2022,05,16,06,14,9.40
2022,05,16,06,15,14.10
2022,05,16,06,16,10.00
2022,05,16,06,17,6.10
2022,05,16,06,18,7.70
2022,05,16,06,19,9.60
2022,05,16,06,20,8.90
2022,05,16,06,21,9.20
2022,05,16,06,22,8.00
2022,05,16,06,23,5.70
2022,05,16,06,24,9.80
2022,05,16,06,25,13.00
2022,05,16,06,26,8.60
2022,05,16,06,27,8.10
2022,05,16,06,28,12.50
2022,05,16,06,29,10.60
2022,05,16,06,30,8.00
2022,05,16,06,31,8.90
2022,05,16,06,32,11.40
2022,05,16,06,33,10.60
2022,05,16,06,34,8.30
2022,05,16,06,35,9.40
2022,05,16,06,36,16.70
2022,05,16,06,37,15.00
2022,05,16,06,38,7.20
2022,05,16,06,39,9.70
2022,05,16,06,40,15.40
2022,05,16,06,41,9.30
2022,05,16,06,42,14.90
2022,05,16,06,43,9.80
2022,05,16,06,44,9.70
2022,05,16,06,45,9.60
2022,05,16,06,46,12.40
2022,05,16,06,47,15.20
2022,05,16,06,48,13.10
2022,05,16,06,49,7.90
2022,05,16,06,50,14.40
2022,05,16,06,51,16.40
2022,05,16,06,52,13.10
2022,05,16,06,53,11.60
2022,05,16,06,54,14.10
2022,05,16,06,55,15.10
2022,05,16,06,56,13.20
2022,05,16,06,57,13.00
2022,05,16,06,58,14.90
2022,05,16,06,59,14.00
2022,05,16,07,00,15.00
2022,05,16,07,01,18.60
2022,05,16,07,02,13.50
2022,05,16,07,03,10.80
2022,05,16,07,04,11.90
2022,05,16,07,05,11.00
2022,05,16,07,06,9.70
2022,05,16,07,07,13.60
2022,05,16,07,08,13.60
2022,05,16,07,09,15.10
2022,05,16,07,10,14.10
2022,05,16,07,11,9.80
2022,05,16,07,12,7.00
2022,05,16,07,13,11.20
2022,05,16,07,14,16.30
2022,05,16,07,15,12.10
2022,05,16,07,16,20.50
2022,05,16,07,17,12.60
2022,05,16,07,18,7.50
2022,05,16,07,19,10.90
2022,05,16,07,20,7.00
2022,05,16,07,21,9.10
2022,05,16,07,22,14.50
2022,05,16,07,23,19.40
2022,05,16,07,24,18.30
2022,05,16,07,25,15.30
2022,05,16,07,26,18.00
2022,05,16,07,27,20.80
2022,05,16,07,28,19.30
2022,05,16,07,29,16.50
2022,05,16,07,30,16.10
2022,05,16,07,31,10.50
2022,05,16,07,32,14.60
2022,05,16,07,33,14.80
2022,05,16,07,34,13.60
2022,05,16,07,35,14.10
2022,05,16,07,36,17.60
2022,05,16,07,37,13.00
2022,05,16,07,38,15.80
2022,05,16,07,39,14.40
2022,05,16,07,40,12.30
2022,05,16,07,41,18.30
2022,05,16,07,42,11.70
2022,05,16,07,43,21.80
2022,05,16,07,44,12.50
2022,05,16,07,45,14.50
2022,05,16,07,46,17.50
2022,05,16,07,47,14.70
2022,05,16,07,48,15.70
2022,05,16,07,49,12.60
2022,05,16,07,50,16.30
2022,05,16,07,51,18.40
2022,05,16,07,52,15.60
2022,05,16,07,53,10.30
2022,05,16,07,54,15.70
2022,05,16,07,55,16.20
2022,05,16,07,56,11.70
2022,05,16,07,57,8.50
2022,05,16,07,58,13.70
2022,05,16,07,59,14.00
2022,05,16,08,00,21.80
2022,05,16,08,01,18.80
2022,05,16,08,02,18.50
2022,05,16,08,03,18.10
2022,05,16,08,04,11.90
2022,05,16,08,05,12.50
2022,05,16,08,06,16.00
2022,05,16,08,07,13.90
2022,05,16,08,08,17.20
2022,05,16,08,09,11.60
2022,05,16,08,10,17.30
2022,05,16,08,11,12.70
2022,05,16,08,12,20.30
2022,05,16,08,13,15.00
2022,05,16,08,14,16.50
2022,05,16,08,15,14.80
2022,05,16,08,16,16.90
2022,05,16,08,17,15.60
2022,05,16,08,18,4.90
2022,05,16,08,19,12.50
2022,05,16,08,20,22.30
2022,05,16,08,21,20.50
2022,05,16,08,22,27.00
2022,05,16,08,23,21.40
2022,05,16,08,24,22.30
2022,05,16,08,25,25.20
2022,05,16,08,26,18.40
2022,05,16,08,27,18.60
2022,05,16,08,28,15.70
2022,05,16,08,29,15.00
2022,05,16,08,30,22.60
2022,05,16,08,31,23.00
2022,05,16,08,32,18.00
2022,05,16,08,33,23.90
2022,05,16,08,34,22.70
2022,05,16,08,35,20.60
2022,05,16,08,36,21.40
2022,05,16,08,37,19.60
2022,05,16,08,38,23.60
2022,05,16,08,39,20.60
2022,05,16,08,40,20.30
2022,05,16,08,41,19.30
2022,05,16,08,42,16.80
2022,05,16,08,43,13.80
2022,05,16,08,44,15.30
2022,05,16,08,45,17.80
2022,05,16,08,46,21.40
2022,05,16,08,47,12.70
2022,05,16,08,48,12.90
2022,05,16,08,49,8.00
2022,05,16,08,50,13.80
2022,05,16,08,51,12.90
2022,05,16,08,52,15.10
2022,05,16,08,53,12.80
2022,05,16,08,54,15.90
2022,05,16,08,55,16.80
2022,05,16,08,56,14.30
2022,05,16,08,57,17.10
2022,05,16,08,58,12.20
2022,05,16,08,59,11.90
2022,05,16,09,00,16.20
2022,05,16,09,01,12.70
2022,05,16,09,02,11.90
2022,05,16,09,03,12.40
2022,05,16,09,04,12.10
2022,05,16,09,05,15.60
2022,05,16,09,06,18.70
2022,05,16,09,07,14.00
2022,05,16,09,08,11.10
2022,05,16,09,09,10.40
2022,05,16,09,10,12.10
2022,05,16,09,11,12.30
2022,05,16,09,12,10.50
2022,05,16,09,13,15.80
2022,05,16,09,14,15.50
2022,05,16,09,15,19.50
2022,05,16,09,16,18.90
2022,05,16,09,17,12.40
2022,05,16,09,18,12.90
2022,05,16,09,19,14.80
2022,05,16,09,20,20.90
2022,05,16,09,21,20.40
2022,05,16,09,22,18.40
2022,05,16,09,23,22.20
2022,05,16,09,24,19.50
2022,05,16,09,25,13.60
2022,05,16,09,26,22.60
2022,05,16,09,27,15.00
2022,05,16,09,28,10.60
2022,05,16,09,29,15.30
2022,05,16,09,30,23.80
2022,05,16,09,31,18.90
2022,05,16,09,32,14.30
2022,05,16,09,33,13.00
2022,05,16,09,34,6.80
2022,05,16,09,35,13.00
2022,05,16,09,36,20.60
2022,05,16,09,37,19.10
2022,05,16,09,38,22.40
2022,05,16,09,39,19.00
2022,05,16,09,40,20.60
2022,05,16,09,41,13.60
2022,05,16,09,42,16.70
2022,05,16,09,43,12.00
2022,05,16,09,44,19.10
2022,05,16,09,45,23.00
2022,05,16,09,46,20.40
2022,05,16,09,47,23.00
2022,05,16,09,48,17.40
2022,05,16,09,49,19.90
2022,05,16,09,50,17.00
2022,05,16,09,51,17.20
2022,05,16,09,52,23.50
2022,05,16,09,53,20.70
2022,05,16,09,54,21.90
2022,05,16,09,55,15.10
2022,05,16,09,56,7.50
2022,05,16,09,57,15.30
2022,05,16,09,58,15.20
2022,05,16,09,59,19.20
2022,05,16,10,00,15.60
2022,05,16,10,01,10.90
2022,05,16,10,02,13.30
2022,05,16,10,03,11.20
2022,05,16,10,04,13.40
2022,05,16,10,05,13.30
2022,05,16,10,06,17.50
2022,05,16,10,07,18.40
2022,05,16,10,08,18.00
2022,05,16,10,09,16.00
2022,05,16,10,10,27.20
2022,05,16,10,11,17.80
2022,05,16,10,12,17.80
2022,05,16,10,13,18.00
2022,05,16,10,14,21.20
2022,05,16,10,15,16.30
2022,05,16,10,16,15.50
2022,05,16,10,17,14.10
2022,05,16,10,18,15.50
2022,05,16,10,19,14.60
2022,05,16,10,20,15.70
2022,05,16,10,21,18.10
2022,05,16,10,22,18.30
2022,05,16,10,23,22.00
2022,05,16,10,24,19.50
2022,05,16,10,25,18.50
2022,05,16,10,26,22.30
2022,05,16,10,27,14.70
2022,05,16,10,28,21.90
2022,05,16,10,29,20.00
2022,05,16,10,30,16.40
2022,05,16,10,31,17.90
2022,05,16,10,32,18.50
2022,05,16,10,33,18.20
2022,05,16,10,34,10.30
2022,05,16,10,35,9.50
2022,05,16,10,36,17.90
2022,05,16,10,37,15.50
2022,05,16,10,38,16.00
2022,05,16,10,39,18.00
2022,05,16,10,40,16.30
2022,05,16,10,41,16.40
2022,05,16,10,42,20.20
2022,05,16,10,43,10.90
2022,05,16,10,44,17.00
2022,05,16,10,45,11.80
2022,05,16,10,46,11.30
2022,05,16,10,47,12.80
2022,05,16,10,48,22.80
2022,05,16,10,49,19.20
2022,05,16,10,50,14.30
2022,05,16,10,51,16.50
2022,05,16,10,52,16.30
2022,05,16,10,53,22.90
2022,05,16,10,54,22.90
2022,05,16,10,55,16.00
2022,05,16,10,56,13.20
2022,05,16,10,57,16.80
2022,05,16,10,58,21.50
2022,05,16,10,59,18.40
2022,05,16,11,00,20.30
2022,05,16,11,01,15.20
2022,05,16,11,02,24.20
2022,05,16,11,03,17.10
2022,05,16,11,04,17.90
2022,05,16,11,05,13.30
2022,05,16,11,06,22.50
2022,05,16,11,07,24.10
2022,05,16,11,08,23.30
2022,05,16,11,09,21.80
2022,05,16,11,10,22.30
2022,05,16,11,11,20.20
2022,05,16,11,12,21.40
2022,05,16,11,13,17.10
2022,05,16,11,14,14.20
2022,05,16,11,15,13.20
2022,05,16,11,16,23.90
2022,05,16,11,17,21.20
2022,05,16,11,18,18.00
2022,05,16,11,19,15.80
2022,05,16,11,20,18.10
2022,05,16,11,21,18.40
2022,05,16,11,22,10.70
2022,05,16,11,23,17.30
2022,05,16,11,24,19.40
2022,05,16,11,25,16.00
2022,05,16,11,26,22.20
2022,05,16,11,27,20.20
2022,05,16,11,28,22.10
2022,05,16,11,29,11.40
2022,05,16,11,30,15.90
2022,05,16,11,31,20.90
2022,05,16,11,32,19.00
2022,05,16,11,33,23.30
2022,05,16,11,34,21.00
2022,05,16,11,35,15.30
2022,05,16,11,36,8.50
2022,05,16,11,37,21.30
2022,05,16,11,38,16.50
2022,05,16,11,39,21.30
2022,05,16,11,40,15.80
2022,05,16,11,41,20.80
2022,05,16,11,42,21.80
2022,05,16,11,43,16.70
2022,05,16,11,44,19.10
2022,05,16,11,45,18.10
2022,05,16,11,46,19.10
2022,05,16,11,47,20.80
2022,05,16,11,48,17.70
2022,05,16,11,49,10.90
2022,05,16,11,50,18.60
2022,05,16,11,51,21.70
2022,05,16,11,52,13.50
2022,05,16,11,53,11.50
2022,05,16,11,54,14.90
2022,05,16,11,55,13.60
2022,05,16,11,56,12.40
2022,05,16,11,57,17.70
2022,05,16,11,58,13.10
2022,05,16,11,59,13.90
2022,05,16,12,00,20.80
2022,05,16,12,01,20.80
2022,05,16,12,02,16.00
2022,05,16,12,03,17.20
2022,05,16,12,04,15.40
2022,05,16,12,05,10.90
2022,05,16,12,06,17.50
2022,05,16,12,07,11.90
2022,05,16,12,08,21.80
2022,05,16,12,09,17.50
2022,05,16,12,10,17.40
2022,05,16,12,11,16.40
2022,05,16,12,12,19.60
2022,05,16,12,13,19.00
2022,05,16,12,14,14.60
2022,05,16,12,15,17.50
2022,05,16,12,16,15.70
2022,05,16,12,17,13.00
2022,05,16,12,18,22.20
2022,05,16,12,19,20.30
2022,05,16,12,20,17.50
2022,05,16,12,21,14.10
2022,05,16,12,22,19.70
2022,05,16,12,23,23.60
2022,05,16,12,24,25.30
2022,05,16,12,25,22.70
2022,05,16,12,26,21.90
2022,05,16,12,27,14.10
2022,05,16,12,28,25.60
2022,05,16,12,29,19.60
2022,05,16,12,30,19.10
2022,05,16,12,31,20.80
2022,05,16,12,32,15.80
2022,05,16,12,33,17.40
2022,05,16,12,34,23.00
2022,05,16,12,35,20.20
2022,05,16,12,36,19.20
2022,05,16,12,37,17.50
2022,05,16,12,38,21.90
2022,05,16,12,39,18.00
2022,05,16,12,40,9.90
2022,05,16,12,41,13.20
2022,05,16,12,42,14.60
2022,05,16,12,43,17.90
2022,05,16,12,44,16.70
2022,05,16,12,45,18.40
2022,05,16,12,46,16.90
2022,05,16,12,47,18.10
2022,05,16,12,48,16.20
2022,05,16,12,49,21.90
2022,05,16,12,50,23.00
2022,05,16,12,51,14.10
2022,05,16,12,52,22.80
2022,05,16,12,53,23.70
2022,05,16,12,54,18.20
2022,05,16,12,55,19.80
2022,05,16,12,56,16.90
2022,05,16,12,57,14.20
2022,05,16,12,58,20.60
2022,05,16,12,59,18.70
2022,05,16,13,00,20.50
2022,05,16,13,01,20.20
2022,05,16,13,02,24.60
2022,05,16,13,03,20.90
2022,05,16,13,04,20.60
2022,05,16,13,05,16.70
2022,05,16,13,06,18.10
2022,05,16,13,07,21.50
2022,05,16,13,08,16.40
2022,05,16,13,09,18.40
2022,05,16,13,10,15.40
2022,05,16,13,11,15.80
2022,05,16,13,12,18.80
2022,05,16,13,13,13.00
2022,05,16,13,14,20.40
2022,05,16,13,15,12.70
2022,05,16,13,16,15.30
2022,05,16,13,17,17.70
2022,05,16,13,18,24.70
2022,05,16,13,19,22.90
2022,05,16,13,20,21.70
2022,05,16,13,21,19.00
2022,05,16,13,22,18.60
2022,05,16,13,23,14.90
2022,05,16,13,24,20.40
2022,05,16,13,25,19.00
2022,05,16,13,26,23.50
2022,05,16,13,27,20.70
2022,05,16,13,28,12.80
2022,05,16,13,29,14.10
2022,05,16,13,30,18.70
2022,05,16,13,31,17.20
2022,05,16,13,32,15.50
2022,05,16,13,33,10.10
2022,05,16,13,34,16.50
2022,05,16,13,35,19.20
2022,05,16,13,36,19.90
2022,05,16,13,37,14.20
2022,05,16,13,38,18.20
2022,05,16,13,39,17.50
2022,05,16,13,40,12.90
2022,05,16,13,41,19.10
2022,05,16,13,42,14.60
2022,05,16,13,43,9.30
2022,05,16,13,44,13.10
2022,05,16,13,45,16.70
2022,05,16,13,46,16.90
2022,05,16,13,47,18.50
2022,05,16,13,48,15.20
2022,05,16,13,49,18.00
2022,05,16,13,50,9.90
2022,05,16,13,51,16.90
2022,05,16,13,52,15.50
2022,05,16,13,53,20.80
2022,05,16,13,54,16.40
2022,05,16,13,55,16.20
2022,05,16,13,56,14.40
2022,05,16,13,57,21.70
2022,05,16,13,58,17.70
2022,05,16,13,59,19.60
2022,05,16,14,00,14.60
2022,05,16,14,01,17.30
2022,05,16,14,02,23.00
2022,05,16,14,03,15.30
2022,05,16,14,04,22.00
2022,05,16,14,05,18.10
2022,05,16,14,06,17.60
2022,05,16,14,07,14.00
2022,05,16,14,08,14.10
2022,05,16,14,09,17.70
2022,05,16,14,10,13.80
2022,05,16,14,11,19.80
2022,05,16,14,12,17.60
2022,05,16,14,13,16.90
2022,05,16,14,14,12.80
2022,05,16,14,15,13.00
2022,05,16,14,16,14.70
2022,05,16,14,17,11.80
2022,05,16,14,18,18.80
2022,05,16,14,19,15.10
2022,05,16,14,20,13.60
2022,05,16,14,21,14.20
2022,05,16,14,22,12.30
2022,05,16,14,23,13.50
2022,05,16,14,24,15.10
2022,05,16,14,25,16.70
2022,05,16,14,26,15.00
2022,05,16,14,27,14.00
2022,05,16,14,28,14.60
2022,05,16,14,29,14.60
2022,05,16,14,30,10.00
2022,05,16,14,31,5.20
2022,05,16,14,32,7.40
2022,05,16,14,33,13.30
2022,05,16,14,34,10.30
2022,05,16,14,35,14.70
2022,05,16,14,36,20.20
2022,05,16,14,37,14.20
2022,05,16,14,38,22.00
2022,05,16,14,39,11.90
2022,05,16,14,40,5.00
2022,05,16,14,41,13.70
2022,05,16,14,42,18.00
2022,05,16,14,43,11.90
2022,05,16,14,44,7.50
2022,05,16,14,45,7.40
2022,05,16,14,46,9.50
2022,05,16,14,47,9.00
2022,05,16,14,48,11.40
2022,05,16,14,49,11.30
2022,05,16,14,50,10.10
2022,05,16,14,51,15.10
2022,05,16,14,52,20.10
2022,05,16,14,53,14.10
2022,05,16,14,54,13.80
2022,05,16,14,55,11.10
2022,05,16,14,56,10.70
2022,05,16,14,57,16.60
2022,05,16,14,58,7.30
2022,05,16,14,59,12.10
2022,05,16,15,00,14.60
2022,05,16,15,01,13.60
2022,05,16,15,02,11.00
2022,05,16,15,03,6.70
2022,05,16,15,04,12.00
2022,05,16,15,05,7.30
2022,05,16,15,06,13.30
2022,05,16,15,07,14.10
2022,05,16,15,08,16.70
2022,05,16,15,09,16.70
2022,05,16,15,10,10.50
2022,05,16,15,11,8.00
2022,05,16,15,12,15.60
2022,05,16,15,13,11.40
2022,05,16,15,14,5.50
2022,05,16,15,15,15.90
2022,05,16,15,16,15.20
2022,05,16,15,17,18.30
2022,05,16,15,18,19.10
2022,05,16,15,19,12.00
2022,05,16,15,20,21.10
2022,05,16,15,21,21.30
2022,05,16,15,22,19.70
2022,05,16,15,23,16.10
2022,05,16,15,24,9.70
2022,05,16,15,25,10.80
2022,05,16,15,26,14.70
2022,05,16,15,27,16.10
2022,05,16,15,28,16.90
2022,05,16,15,29,17.70
2022,05,16,15,30,13.60
2022,05,16,15,31,10.90
2022,05,16,15,32,20.70
2022,05,16,15,33,15.70
2022,05,16,15,34,16.00
2022,05,16,15,35,10.30
2022,05,16,15,36,13.00
2022,05,16,15,37,13.80
2022,05,16,15,38,14.40
2022,05,16,15,39,13.60
2022,05,16,15,40,15.80
2022,05,16,15,41,13.40
2022,05,16,15,42,20.30
2022,05,16,15,43,16.60
2022,05,16,15,44,18.80
2022,05,16,15,45,14.30
2022,05,16,15,46,15.80
2022,05,16,15,47,16.00
2022,05,16,15,48,17.10
2022,05,16,15,49,15.70
2022,05,16,15,50,16.90
2022,05,16,15,51,18.90
2022,05,16,15,52,16.70
2022,05,16,15,53,15.40
2022,05,16,15,54,15.30
2022,05,16,15,55,17.80
2022,05,16,15,56,11.10
2022,05,16,15,57,11.10
2022,05,16,15,58,8.20
2022,05,16,15,59,10.30
2022,05,16,16,00,9.00
2022,05,16,16,01,8.50
2022,05,16,16,02,15.10
2022,05,16,16,03,14.40
2022,05,16,16,04,11.20
2022,05,16,16,05,17.00
2022,05,16,16,06,11.80
2022,05,16,16,07,15.30
2022,05,16,16,08,16.00
2022,05,16,16,09,12.40
2022,05,16,16,10,14.70
2022,05,16,16,11,15.80
2022,05,16,16,12,10.80
2022,05,16,16,13,12.50
2022,05,16,16,14,13.80
2022,05,16,16,15,8.40
2022,05,16,16,16,8.20
2022,05,16,16,17,14.80
2022,05,16,16,18,16.90
2022,05,16,16,19,22.50
2022,05,16,16,20,15.60
2022,05,16,16,21,13.10
2022,05,16,16,22,13.60
2022,05,16,16,23,16.00
2022,05,16,16,24,14.20
2022,05,16,16,25,13.40
2022,05,16,16,26,15.50
2022,05,16,16,27,16.90
2022,05,16,16,28,13.00
2022,05,16,16,29,10.80
2022,05,16,16,30,19.00
2022,05,16,16,31,16.00
2022,05,16,16,32,17.70
2022,05,16,16,33,14.70
2022,05,16,16,34,11.00
2022,05,16,16,35,9.30
2022,05,16,16,36,10.00
2022,05,16,16,37,15.10
2022,05,16,16,38,16.30
2022,05,16,16,39,13.70
2022,05,16,16,40,18.40
2022,05,16,16,41,20.20
2022,05,16,16,42,20.80
2022,05,16,16,43,14.10
2022,05,16,16,44,10.70
2022,05,16,16,45,15.10
2022,05,16,16,46,14.40
2022,05,16,16,47,14.10
2022,05,16,16,48,16.20
2022,05,16,16,49,13.70
2022,05,16,16,50,13.00
2022,05,16,16,51,10.30
2022,05,16,16,52,13.40
2022,05,16,16,53,16.50
2022,05,16,16,54,16.10
2022,05,16,16,55,6.50
2022,05,16,16,56,12.20
2022,05,16,16,57,11.50
2022,05,16,16,58,13.40
2022,05,16,16,59,7.50
2022,05,16,17,00,17.60
2022,05,16,17,01,17.50
2022,05,16,17,02,12.10
2022,05,16,17,03,18.20
2022,05,16,17,04,11.30
2022,05,16,17,05,12.00
2022,05,16,17,06,11.20
2022,05,16,17,07,12.00
2022,05,16,17,08,11.20
2022,05,16,17,09,14.40
2022,05,16,17,10,11.20
2022,05,16,17,11,8.00
2022,05,16,17,12,3.20
2022,05,16,17,13,13.00
2022,05,16,17,14,14.00
2022,05,16,17,15,16.70
2022,05,16,17,16,9.70
2022,05,16,17,17,7.70
2022,05,16,17,18,13.80
2022,05,16,17,19,8.10
2022,05,16,17,20,7.70
2022,05,16,17,21,9.50
2022,05,16,17,22,9.70
2022,05,16,17,23,9.70
2022,05,16,17,24,15.80
2022,05,16,17,25,13.10
2022,05,16,17,26,15.20
2022,05,16,17,27,19.40
2022,05,16,17,28,15.90
2022,05,16,17,29,14.10
2022,05,16,17,30,16.30
2022,05,16,17,31,11.70
2022,05,16,17,32,14.70
2022,05,16,17,33,8.20
2022,05,16,17,34,17.00
2022,05,16,17,35,12.30
2022,05,16,17,36,12.50
2022,05,16,17,37,10.90